Wind_Speed
26 25 24 23 22 21 20 20 19 18 18 17 16 15 14 12 11 10 9 9 10 10 11 12 14 15 15 15 15 14 15 16 18 19 21 22 24 26 27 28 29 29 29 29 29 30 31 32 33 31 29 26 20 12 5 4 12 16 16 14 12 11 12 12 12 13 13 12 10 10 10 9 8 9 10 12 13 14 14 15 15 16 16 16 17 17 18 18
29 28 27 27 26 25 24 23 22 21 20 20 19 18 17 16 14 12 11 11 11 11 10 11 13 14 15 15 15 14 14 14 15 17 18 20 21 23 25 26 28 28 28 28 29 29 29 31 32 32 31 29 25 18 10 3 7 14 17 16 12 11 10 10 10 10 9 8 6 5 6 6 6 7 9 10 11 11 11 11 11 11 11 11 12 13 14 15
32 32 31 30 29 28 27 26 25 24 22 22 21 21 20 19 18 16 14 13 13 12 11 11 12 13 14 15 15 15 14 13 13 14 16 17 18 20 22 24 26 27 27 28 28 28 28 29 30 31 32 31 29 24 16 7 2 9 14 14 12 10 9 8 9 7 6 6 4 4 4 4 6 7 8 8 8 7 6 5 4 3 3 3 5 6 7 8
35 35 34 33 32 31 31 30 29 28 26 25 24 23 22 22 21 20 18 16 15 14 14 12 12 13 13 15 15 16 15 13 12 12 13 15 16 18 19 21 23 25 26 27 27 27 27 27 28 30 31 31 30 28 22 14 5 4 9 13 13 10 8 9 9 8 7 7 6 5 6 8 9 9 10 9 7 7 6 5 4 3 3 2 2 2 3 3
38 37 37 36 35 34 34 33 32 31 30 29 28 26 25 24 24 23 21 19 18 17 17 15 14 14 14 14 15 16 16 14 13 12 12 13 14 16 17 18 20 22 24 25 26 26 27 27 27 28 29 30 30 29 26 20 12 4 6 11 13 11 9 10 10 8 8 7 8 8 9 10 10 10 9 8 6 6 6 6 6 5 4 4 4 4 3 3
39 39 39 38 38 37 37 36 35 34 33 32 31 30 28 28 27 26 25 23 21 19 19 18 17 15 15 15 16 16 16 16 14 13 11 11 13 14 15 16 17 19 21 23 24 25 25 26 26 27 28 29 30 30 29 25 17 8 6 8 11 11 11 12 12 9 8 7 7 9 10 9 9 8 8 7 7 7 6 5 5 4 4 4 3 3 3 3
39 39 39 39 39 39 39 38 38 37 36 35 34 33 32 30 30 29 28 27 25 23 22 21 20 18 17 16 17 17 17 17 17 14 13 11 11 12 13 14 15 17 18 20 22 23 24 24 25 26 27 28 29 31 31 28 21 13 7 7 9 11 12 13 11 9 8 6 6 8 9 9 9 9 8 7 7 6 4 3 3 3 3 4 4 4 4 4
41 40 40 40 40 40 40 39 39 39 38 38 37 36 34 33 32 31 31 30 29 27 25 24 23 22 20 18 18 19 18 18 18 16 14 12 11 11 12 13 14 15 16 17 19 21 22 23 24 25 25 27 28 29 30 29 25 18 9 6 8 11 13 13 11 8 7 5 5 7 9 10 9 9 8 7 6 5 3 3 3 3 3 4 4 5 5 5
44 43 42 42 41 41 41 40 40 39 39 38 38 37 37 36 35 34 33 32 32 30 29 27 26 25 23 21 20 21 20 20 20 19 16 14 13 12 11 12 12 13 14 15 17 18 20 21 22 23 24 24 26 27 28 28 26 22 14 8 9 12 14 14 11 8 6 5 6 9 10 9 8 7 6 6 5 4 4 4 4 3 3 3 3 4 4 5
48 47 46 45 44 43 42 42 41 40 40 39 38 38 38 38 37 36 36 35 35 33 32 30 29 28 27 25 23 22 22 22 22 20 19 16 14 13 12 12 11 11 12 13 14 16 17 19 20 20 21 22 23 23 25 26 25 24 20 14 12 13 14 12 10 8 7 6 8 9 9 9 7 6 6 6 5 5 4 5 5 4 2 1 2 2 2 2
52 51 51 50 48 47 46 45 44 43 41 40 39 38 38 38 36 36 37 37 37 36 36 34 32 31 30 30 27 24 24 26 24 22 21 19 16 15 13 12 12 12 11 12 12 13 15 16 17 18 18 19 20 21 22 23 23 23 23 21 19 15 12 10 8 6 7 7 7 7 7 8 6 5 5 5 5 5 5 6 6 6 5 4 4 3 3 3
56 55 55 54 53 52 50 49 47 46 44 42 41 40 40 39 37 36 36 37 38 38 38 37 36 34 33 33 30 27 28 29 26 25 23 21 19 17 15 13 13 12 11 11 11 12 12 13 15 16 16 17 17 18 20 21 20 20 23 25 23 18 11 8 6 5 5 5 5 5 6 6 4 3 3 4 4 4 5 7 8 7 7 7 7 7 7 7
60 59 58 57 56 56 55 53 52 50 48 46 44 43 42 41 40 38 37 37 37 37 38 38 38 37 36 35 31 31 33 31 29 27 25 24 22 19 17 14 14 14 12 12 12 11 11 12 12 14 15 15 15 16 17 18 18 18 22 25 23 19 13 8 5 4 3 3 3 4 4 3 2 4 5 4 3 3 5 7 7 7 7 7 8 9 8 9
64 63 62 61 60 59 58 58 56 54 52 50 48 47 46 45 43 41 40 39 38 38 37 37 37 37 37 34 31 36 36 32 30 28 26 27 26 22 20 17 16 16 14 13 12 11 11 11 11 11 13 13 13 14 14 15 15 16 19 23 23 18 14 11 7 4 2 2 1 2 3 2 3 5 6 5 4 3 4 4 5 6 6 7 9 10 10 11
67 67 66 65 64 64 63 62 61 59 56 54 52 51 51 49 47 45 44 43 41 39 38 38 37 37 38 34 33 38 37 32 31 30 30 30 29 26 23 20 18 18 16 14 14 12 12 12 11 10 10 12 12 12 12 12 13 14 16 19 20 17 14 12 9 7 4 2 3 3 4 3 3 5 6 4 3 3 3 3 5 6 6 8 10 11 12 13
70 69 69 68 68 67 67 66 65 63 61 58 56 56 56 54 51 49 48 47 45 43 41 40 39 39 39 34 35 40 37 32 32 33 33 32 33 30 26 24 22 20 18 16 17 14 12 13 12 10 9 10 10 10 10 11 11 12 12 14 16 15 13 12 10 8 6 4 4 6 6 4 4 6 7 7 7 8 8 7 7 8 8 9 11 12 13 14
72 72 72 71 71 70 70 69 69 67 64 62 60 59 60 59 56 54 53 51 49 47 45 44 41 41 41 36 37 41 36 33 34 36 36 34 35 33 30 28 24 22 20 19 20 16 14 14 14 12 9 9 9 9 9 9 9 9 9 10 11 11 11 11 11 10 8 7 7 8 8 7 8 9 9 11 11 12 12 12 11 10 10 10 10 11 11 12
75 75 75 74 74 73 72 72 72 70 67 65 64 63 63 63 61 59 58 56 54 52 49 48 46 45 45 39 39 41 37 35 36 38 38 36 35 35 33 30 27 24 23 23 23 19 16 16 15 14 11 9 8 8 8 7 7 7 7 6 7 8 8 8 8 8 8 9 9 10 10 10 10 10 9 10 10 10 10 11 11 11 11 11 9 8 7 7
77 77 77 77 77 76 75 75 75 73 71 68 67 67 66 66 65 63 62 60 58 56 54 52 51 50 49 44 41 42 39 36 39 39 38 36 36 36 34 31 30 27 26 27 26 23 19 19 18 16 14 12 10 9 8 7 6 5 5 5 4 5 6 6 5 4 6 8 8 8 8 9 8 8 7 7 7 8 8 9 10 10 10 10 9 6 4 4
78 79 79 79 79 79 78 79 78 77 75 72 70 70 69 69 68 67 66 65 62 60 58 56 55 55 54 49 45 44 43 40 41 42 39 37 37 37 34 33 32 30 30 31 30 26 22 23 23 19 17 14 11 11 11 8 7 5 4 3 3 2 3 3 4 3 4 6 6 5 5 5 5 5 5 5 6 7 7 8 8 9 9 9 8 6 5 5
77 78 80 81 81 81 81 81 81 80 78 76 74 73 73 72 71 70 69 69 66 63 62 61 59 59 58 54 49 48 46 43 44 45 42 40 39 37 35 34 34 33 34 34 32 29 26 28 27 22 19 17 14 14 13 11 10 8 6 4 4 3 1 0 1 2 3 4 4 4 4 4 4 3 4 4 5 6 6 6 6 6 6 7 6 5 5 4
71 74 77 80 82 82 82 83 83 83 81 80 78 76 76 75 74 73 72 72 70 67 66 65 62 63 63 59 55 52 49 48 49 48 46 43 41 39 37 35 35 37 37 35 33 32 31 34 31 24 22 20 18 17 16 15 13 12 10 7 6 5 3 2 2 2 2 3 3 3 3 3 2 1 1 2 3 3 4 4 3 4 4 4 4 4 4 3
64 67 71 74 78 80 81 83 84 84 84 83 81 79 78 78 77 76 75 75 74 70 69 68 66 67 67 62 59 56 54 54 53 51 48 46 44 42 40 37 37 39 38 35 35 36 37 37 32 25 24 23 21 19 18 18 17 15 14 11 10 8 6 5 5 5 3 3 3 3 3 3 3 2 2 1 1 1 1 2 1 1 2 2 2 2 2 3
57 61 64 68 71 74 76 79 82 83 84 84 84 82 81 80 79 79 77 78 80 75 71 71 70 71 69 65 61 59 60 59 57 54 51 50 48 46 44 42 40 40 38 38 38 39 41 39 32 27 26 26 25 22 21 22 21 19 18 16 14 11 9 8 7 6 6 5 4 3 3 3 3 2 2 2 2 1 1 2 2 3 3 3 3 3 4 4
51 54 57 61 65 69 71 73 76 79 81 83 84 84 84 83 81 80 79 79 83 81 75 73 74 75 72 67 64 64 64 63 62 59 55 54 53 49 47 46 43 41 40 40 39 41 44 40 33 30 29 29 28 26 25 25 24 22 21 20 18 14 11 11 11 9 8 6 6 6 5 5 5 3 3 3 3 3 4 4 5 5 5 5 5 5 6 6
47 48 51 55 59 63 66 68 71 74 76 79 81 83 84 85 83 82 81 81 84 86 81 76 76 78 75 70 67 67 67 66 67 63 58 58 57 53 51 48 46 44 43 42 41 42 46 41 34 32 32 31 31 30 29 28 27 26 26 23 20 16 14 14 14 12 9 8 9 9 7 6 6 5 5 5 6 7 7 7 7 7 8 7 7 7 7 7
47 46 47 49 53 57 60 63 65 68 72 74 76 79 82 84 84 84 83 83 85 88 85 80 79 80 79 74 70 69 69 71 71 66 62 62 62 58 54 51 50 48 46 45 42 43 47 44 37 35 35 34 33 34 34 32 31 31 29 25 22 19 17 16 16 14 12 10 11 11 10 9 8 7 7 7 7 8 9 9 8 8 8 8 7 7 7 7
51 49 48 48 48 51 55 58 59 62 67 70 72 74 77 80 81 83 84 84 88 90 88 84 82 81 81 78 74 71 73 75 73 69 68 67 65 62 57 55 54 53 51 48 44 45 51 48 40 38 37 35 36 38 38 35 35 36 31 26 24 22 19 18 17 17 15 13 14 15 13 11 10 9 10 9 9 10 10 9 9 9 9 8 7 7 8 8
56 54 52 50 47 49 52 54 54 56 61 67 69 70 72 74 76 79 82 84 90 93 89 87 85 82 81 81 78 75 76 77 75 72 72 70 68 65 61 59 58 57 54 50 48 50 54 51 44 41 38 37 40 41 39 37 39 38 32 28 26 23 21 20 19 19 16 16 19 19 16 15 12 12 14 12 11 12 13 11 11 12 13 11 9 9 9 10
59 58 57 56 51 49 51 51 49 51 56 61 66 68 69 70 72 74 77 82 89 92 91 89 87 85 83 81 81 79 79 80 79 76 74 73 71 68 66 64 62 59 56 53 52 53 55 53 47 43 40 40 43 42 40 39 41 39 32 29 28 25 23 22 22 21 18 19 25 24 19 18 16 16 17 15 13 15 16 15 14 15 16 15 13 11 12 13
60 60 60 60 57 54 53 50 47 49 52 56 60 64 67 68 69 70 72 80 87 89 90 90 89 87 85 83 82 81 82 83 81 79 77 76 74 72 70 67 64 62 58 56 54 54 56 55 50 46 43 43 45 44 41 41 43 40 33 31 31 28 26 25 24 23 21 25 30 27 22 21 20 20 19 18 17 18 18 17 18 19 19 18 16 14 15 16
61 61 61 61 61 59 56 51 48 49 50 52 56 60 63 65 66 66 70 78 83 85 87 89 89 88 88 86 84 83 84 84 83 81 80 79 77 75 73 71 68 66 62 59 57 55 56 56 53 50 47 46 47 46 44 43 44 40 35 34 34 32 30 29 28 27 26 30 33 30 25 25 25 23 22 21 21 20 20 21 23 23 23 21 18 18 19 19
62 63 63 62 62 62 59 55 53 52 52 51 51 54 59 60 60 63 69 75 78 81 83 85 87 88 89 88 86 85 86 86 85 84 83 82 81 78 77 75 72 70 66 64 62 59 58 59 57 54 50 48 48 48 45 44 45 44 40 38 38 37 35 33 33 32 32 35 36 33 28 27 30 28 24 24 23 22 22 24 26 27 27 25 23 23 23 23
64 64 64 63 63 63 62 60 57 56 55 53 49 50 52 52 52 57 65 73 75 77 79 81 84 86 89 90 89 87 88 87 87 86 85 84 83 81 79 77 75 72 70 68 67 64 63 63 60 56 53 51 48 49 49 48 48 48 45 43 41 39 37 37 37 36 36 37 36 33 28 29 34 31 26 27 26 25 26 27 29 30 30 29 27 27 27 26
65 65 65 65 63 63 64 63 61 59 58 56 52 47 45 46 49 54 62 70 73 73 76 78 81 84 87 90 90 89 89 89 88 88 86 85 83 82 81 80 78 76 74 71 69 67 66 65 62 60 59 57 54 52 53 53 51 50 49 45 41 40 41 42 41 40 40 38 35 33 29 31 36 33 29 31 30 29 29 30 31 32 32 32 31 31 31 30
67 66 66 66 65 64 65 65 64 62 60 60 55 48 46 50 52 54 59 66 70 71 73 75 77 80 84 87 90 90 91 91 91 90 88 86 84 84 83 82 80 79 77 75 72 70 68 65 65 65 63 61 59 58 58 57 54 52 52 47 44 45 47 46 44 42 41 37 35 35 33 33 36 35 34 34 34 34 34 33 34 34 35 36 35 34 34 33
69 68 68 67 66 66 66 66 66 64 62 62 57 53 53 55 56 56 58 62 66 69 71 73 75 78 81 84 87 89 91 93 93 91 89 88 86 85 84 83 82 81 79 78 76 74 72 69 69 69 66 64 63 62 62 61 58 55 53 50 50 52 49 47 44 42 40 37 37 37 36 35 35 37 38 37 36 37 37 36 36 37 38 39 38 37 37 36
71 71 70 68 68 67 67 68 68 66 64 62 59 57 57 57 60 61 58 58 62 65 67 70 72 76 79 82 85 88 91 94 94 92 91 89 87 86 85 84 84 82 81 81 79 77 75 73 74 74 71 69 69 67 65 63 60 56 54 54 56 54 49 46 44 41 40 39 39 40 39 36 36 39 42 40 38 39 39 38 39 39 40 41 40 40 39 39
73 73 72 70 69 69 69 69 69 68 66 63 60 59 59 61 64 64 59 57 57 59 62 66 70 73 77 80 83 86 89 93 94 93 92 90 88 87 87 87 86 85 84 83 81 79 77 75 75 76 75 73 74 71 66 63 62 59 58 59 58 55 51 49 46 43 41 40 40 41 40 38 38 41 43 41 40 41 41 41 41 41 42 43 43 42 42 42
74 74 74 72 71 70 70 70 70 68 66 63 62 61 61 63 66 65 61 58 55 55 58 62 66 70 74 79 82 85 87 91 93 94 93 91 89 89 90 89 88 87 86 85 83 81 79 77 75 77 78 76 75 71 65 63 66 64 62 61 60 58 55 52 50 47 44 42 42 42 40 40 42 45 44 43 43 44 44 43 43 42 43 45 45 45 45 45
75 76 76 75 74 72 71 70 70 69 67 64 63 63 63 64 66 66 64 60 56 55 55 57 62 67 72 77 82 85 86 88 91 92 93 92 90 91 91 91 90 89 89 87 84 82 80 78 77 78 79 76 73 70 66 68 71 69 66 64 63 62 59 56 53 51 48 46 45 44 42 42 46 48 47 46 46 46 45 45 44 44 45 47 47 47 47 47
76 77 77 77 76 74 72 70 70 69 67 64 63 64 64 64 65 67 66 62 59 56 53 54 57 63 70 76 81 85 86 87 88 90 91 92 92 92 93 93 92 92 91 88 85 83 82 80 79 80 79 75 73 73 71 72 74 73 69 66 65 64 62 58 55 52 52 50 48 47 45 43 46 48 48 49 47 45 45 46 46 46 47 49 49 49 49 49
77 78 78 78 78 76 73 71 70 68 66 64 64 64 64 63 64 66 66 64 61 59 56 53 55 60 67 74 80 83 84 85 87 88 89 91 93 94 95 94 93 93 91 88 86 85 85 83 80 79 79 77 77 78 77 76 76 75 70 65 64 64 61 59 56 55 55 53 51 49 45 42 46 48 49 49 47 46 47 48 48 48 49 50 50 49 50 50
78 80 80 79 79 78 75 73 70 68 66 65 63 62 62 62 62 64 66 65 64 63 58 54 54 58 65 72 78 81 82 84 86 86 87 89 92 94 96 96 95 93 91 88 87 87 86 83 81 80 81 81 80 80 78 76 75 73 68 65 64 64 63 62 60 59 59 55 52 50 45 43 47 49 50 50 49 49 49 49 50 50 51 51 51 50 50 50
80 81 81 80 80 80 77 74 71 68 66 65 63 62 62 62 62 64 66 67 66 64 60 57 55 57 62 70 75 78 80 83 85 86 86 87 89 94 97 97 95 93 90 88 88 89 88 85 83 83 83 82 79 77 74 71 71 71 68 66 66 66 67 66 64 63 61 57 54 52 48 48 50 52 53 53 53 52 52 51 51 51 52 52 51 51 51 51
81 81 81 80 79 80 78 75 72 70 68 66 64 63 63 62 62 65 67 67 67 66 63 60 57 57 60 65 71 76 79 82 84 85 85 86 87 91 96 98 96 93 90 89 90 91 89 87 85 84 83 81 78 75 73 72 73 73 71 69 69 70 70 70 69 67 62 59 58 56 54 53 53 53 55 55 55 53 53 53 52 52 53 52 51 51 51 52
81 81 81 80 79 78 77 75 73 71 69 68 67 66 65 64 64 66 67 68 68 68 66 63 60 58 59 62 67 73 77 79 82 84 85 85 86 89 94 97 97 94 91 91 91 91 89 87 86 85 83 81 79 77 77 78 77 76 74 73 73 74 74 74 73 68 64 63 61 58 56 56 55 55 56 56 55 54 54 53 53 53 54 52 51 52 53 53
82 82 83 82 79 77 76 75 74 72 71 70 70 70 69 68 67 67 68 69 69 70 68 66 63 61 60 61 65 69 73 76 78 81 84 85 85 87 91 95 97 95 93 93 92 91 90 87 86 85 84 82 81 80 81 81 80 79 78 76 76 76 76 76 74 69 67 65 61 59 60 59 57 57 57 56 55 54 54 53 53 54 54 53 54 55 55 55
84 83 84 84 81 79 77 76 75 74 73 73 73 74 74 73 72 70 70 70 71 72 72 69 66 63 61 60 61 65 69 73 76 79 83 85 85 86 89 93 95 96 96 94 93 92 91 88 87 87 85 83 83 82 82 83 82 81 79 78 78 77 77 77 75 72 70 67 63 62 63 61 58 58 57 56 55 54 53 53 54 55 55 55 57 57 57 57
87 86 86 86 84 82 80 79 78 78 77 76 76 77 78 78 77 75 74 74 74 75 75 72 69 65 62 60 59 61 66 71 74 77 82 85 85 86 89 91 93 96 97 96 95 93 90 88 87 88 87 85 84 84 83 84 83 82 80 79 78 78 78 77 76 73 71 68 65 65 64 61 59 58 58 57 56 54 53 54 55 56 57 57 60 60 59 59
91 91 90 89 89 88 86 84 83 83 83 82 81 82 83 83 82 79 78 78 78 77 76 74 72 68 64 61 58 59 63 67 71 75 80 84 85 86 88 89 90 94 97 97 96 93 89 88 88 89 87 85 84 84 84 84 84 83 81 80 79 78 78 77 75 73 72 69 67 67 64 60 59 60 60 59 57 56 56 57 58 58 59 60 61 61 60 61
97 96 96 95 95 95 93 91 89 88 89 88 87 87 88 88 86 84 82 81 80 79 78 77 75 71 66 63 59 58 60 63 68 74 79 83 85 86 87 88 89 91 95 97 97 94 91 89 89 89 86 83 82 83 84 85 88 86 82 78 78 77 77 76 75 74 73 72 70 67 63 60 60 61 60 59 58 58 59 60 61 60 61 62 63 62 62 64
Wind_Direction
245 246 247 248 249 250 253 256 260 264 267 268 269 271 274 277 281 288 295 304 312 322 330 335 339 343 347 352 0 10 18 23 25 23 22 25 27 27 27 26 25 25 26 28 30 31 31 31 30 30 32 33 32 25 0 253 225 219 214 209 205 214 223 229 231 228 226 227 229 234 237 241 250 260 261 258 256 254 253 254 256 258 260 262 265 266 267 267
244 245 245 246 247 248 249 250 254 258 263 266 268 268 269 270 272 276 283 289 297 305 314 322 328 333 337 340 346 354 4 13 20 21 19 21 24 26 27 26 24 23 23 25 26 28 29 30 30 29 31 31 33 31 25 352 224 216 214 209 205 211 214 219 224 220 219 214 215 231 240 245 250 253 250 246 244 242 243 245 248 252 257 262 266 267 269 270
246 246 245 245 246 247 247 248 248 250 253 259 264 267 268 267 267 268 271 277 285 291 298 306 314 321 326 331 334 339 347 358 10 15 15 15 18 22 25 26 24 22 22 22 23 24 25 28 30 30 31 31 32 32 33 33 203 206 206 200 195 199 202 205 199 187 191 182 182 217 221 219 216 214 214 210 208 206 202 205 214 227 236 253 267 271 274 275
250 249 248 247 247 247 247 247 248 247 248 250 254 259 264 266 266 266 266 268 273 280 285 291 299 307 315 320 324 327 331 340 353 4 10 10 11 16 21 24 24 22 21 21 21 21 22 24 28 29 30 32 33 33 33 36 45 176 190 191 187 180 186 190 169 158 170 163 161 180 180 181 184 187 187 178 169 159 137 113 91 78 72 56 27 354 336 316
252 252 252 251 250 249 248 248 248 248 248 248 248 251 255 260 263 264 264 264 266 271 276 280 285 293 301 308 313 317 320 325 335 347 359 3 4 8 14 20 22 21 20 20 20 19 19 20 23 27 29 30 35 37 36 37 42 84 166 185 179 165 174 166 143 150 164 152 157 168 171 173 175 178 171 148 128 115 101 89 74 57 43 35 22 4 352 338
254 254 254 253 253 252 251 251 250 250 250 249 249 249 250 253 256 259 261 262 262 263 268 273 276 281 288 295 300 305 310 313 319 329 341 352 357 360 5 12 18 19 18 19 19 18 18 18 19 23 27 27 30 37 41 41 43 62 126 168 164 154 157 144 133 146 146 138 158 170 173 170 166 158 137 113 101 95 91 87 76 55 32 14 4 349 338 324
257 256 256 255 255 254 253 253 252 252 252 251 251 250 250 251 252 255 258 259 260 259 261 265 269 273 277 284 289 293 300 304 308 314 323 335 345 350 356 3 10 14 15 16 18 18 17 17 17 18 24 27 25 31 40 44 44 55 98 147 147 141 140 127 122 132 128 130 155 166 162 150 140 127 114 111 107 99 95 91 73 49 22 2 345 336 330 324
258 258 258 257 257 256 255 254 254 253 253 252 252 252 252 251 251 253 255 257 258 258 258 259 262 266 269 273 280 284 290 295 298 302 309 318 328 337 344 352 1 5 9 12 15 16 16 15 16 16 19 25 25 26 35 43 47 51 71 127 138 131 123 109 105 116 118 129 157 160 146 130 120 115 116 119 114 114 118 101 74 45 19 358 337 325 319 313
259 259 259 258 258 257 257 256 255 254 253 253 253 253 253 253 252 253 253 255 256 257 257 257 258 260 263 265 269 276 281 285 289 292 297 304 313 323 331 339 349 356 0 5 10 13 15 15 15 16 16 22 26 25 30 38 47 52 59 93 123 118 106 95 94 108 118 137 159 153 139 123 113 112 115 119 125 141 133 106 89 64 33 0 332 314 303 294
260 259 259 259 258 258 258 257 257 256 255 254 253 253 252 252 252 253 253 254 255 256 256 256 256 256 258 260 260 266 273 276 279 283 287 293 301 308 317 326 334 343 349 354 3 8 10 13 14 15 16 18 23 26 28 32 41 50 55 64 84 95 95 90 89 108 125 143 151 146 136 122 118 124 128 134 147 151 134 117 112 107 93 47 346 325 303 288
260 260 260 260 259 258 258 257 257 257 256 255 254 253 252 252 251 251 252 253 254 254 255 255 255 254 255 257 256 258 265 268 271 275 279 284 289 296 303 313 320 326 335 341 351 0 4 8 11 12 15 16 19 25 28 27 32 44 51 54 61 71 84 91 92 112 133 143 144 139 128 122 133 153 148 148 152 149 143 137 132 127 121 106 92 88 88 87
260 260 260 260 260 259 259 258 257 256 256 256 255 255 253 252 250 249 250 251 252 253 253 254 254 254 253 254 254 255 257 259 263 267 272 277 279 284 290 298 307 311 320 327 336 348 354 0 5 6 10 15 16 20 27 26 23 35 48 52 55 58 66 87 104 123 140 143 135 121 115 124 149 157 137 146 155 161 159 147 143 136 121 111 108 104 91 84
259 259 260 260 259 259 259 258 258 257 256 255 255 255 254 253 251 249 248 248 249 251 252 252 252 253 253 252 253 254 254 254 258 262 267 271 272 275 280 286 294 298 304 313 320 332 339 346 357 1 3 9 14 16 24 27 19 26 45 51 53 54 56 69 97 133 152 144 116 106 114 122 118 96 88 97 134 165 164 149 146 137 120 112 113 108 92 83
259 259 259 259 259 258 258 258 258 257 256 255 254 254 253 253 252 250 248 247 247 248 250 251 252 252 253 252 252 253 254 253 255 258 263 266 268 269 271 275 281 285 291 300 306 315 323 329 341 352 356 359 9 13 19 26 19 22 42 52 54 52 52 59 74 94 125 157 152 145 144 124 81 79 79 81 98 125 143 141 138 133 122 115 116 112 101 92
258 258 258 258 258 258 258 257 257 257 257 256 254 254 253 252 251 251 250 248 247 246 247 250 251 253 253 253 254 254 254 253 254 256 257 260 263 264 265 268 270 275 282 289 292 298 308 313 321 335 345 350 359 7 13 21 21 21 36 53 59 57 54 55 62 71 81 126 189 180 155 132 78 74 77 82 96 112 122 118 116 116 113 117 119 115 108 102
258 258 258 258 257 257 257 257 257 256 256 255 254 253 253 252 250 249 250 249 248 247 246 248 249 251 252 251 253 255 254 254 253 253 253 254 258 259 260 261 262 266 273 279 281 285 292 298 304 311 324 336 346 357 5 15 19 19 29 49 61 63 62 62 65 73 87 111 143 147 139 125 95 89 90 93 97 101 100 94 93 95 100 112 118 115 111 106
258 258 257 257 257 257 256 256 256 256 255 254 253 253 252 252 250 249 248 248 249 248 247 247 246 248 250 248 250 253 253 253 253 252 252 251 253 255 255 255 256 260 265 269 271 273 278 284 289 293 300 314 328 340 351 7 15 14 20 41 59 63 63 64 67 74 84 94 104 110 111 107 98 96 97 97 95 93 92 90 84 83 91 103 111 112 110 106
258 258 258 257 256 256 256 256 256 256 255 254 253 252 251 252 251 249 248 247 247 247 247 247 246 246 248 245 246 251 251 252 254 253 253 252 253 255 254 254 255 255 258 261 263 265 269 273 277 279 283 292 306 318 327 347 3 8 8 21 53 64 63 64 68 75 82 84 88 94 100 102 102 100 98 95 91 87 87 88 86 84 89 98 107 110 107 101
258 258 258 257 257 256 255 255 255 255 254 253 252 252 251 251 251 250 249 247 246 246 246 247 247 246 246 244 243 247 248 249 253 253 253 254 254 255 255 256 255 253 254 256 258 259 262 266 267 269 272 274 284 295 302 317 330 344 355 354 20 63 70 71 74 81 88 88 87 93 101 106 107 105 99 91 87 83 80 82 86 88 90 97 104 108 103 91
258 257 257 257 257 257 256 255 254 254 254 253 252 252 251 250 250 250 249 248 247 246 245 245 246 246 246 244 242 244 245 245 249 252 252 252 253 254 254 254 254 253 252 253 255 255 257 260 259 259 262 264 269 278 283 290 297 302 316 328 329 17 69 77 82 86 92 93 93 95 101 107 109 108 101 95 92 91 88 85 85 89 93 98 101 103 100 90
258 257 257 256 256 256 256 256 255 254 253 252 251 251 251 250 250 249 249 249 247 246 245 244 244 246 246 245 242 242 243 243 246 249 249 249 250 252 252 252 253 252 250 251 253 253 253 256 255 253 256 259 261 266 272 275 279 281 279 281 287 292 321 86 106 109 108 104 106 107 109 110 105 103 100 96 93 95 99 97 88 86 90 95 99 105 106 95
259 258 257 256 255 255 254 255 255 255 254 253 251 250 249 250 249 249 249 249 248 246 245 244 243 244 244 244 243 242 242 242 243 245 246 246 247 248 249 249 250 250 249 251 253 253 250 251 253 251 252 256 257 259 264 267 269 270 268 265 263 261 252 247 250 222 157 133 131 135 145 147 135 96 65 71 80 83 88 91 84 82 83 85 90 95 97 91
260 259 259 258 256 255 254 253 253 254 254 253 252 250 249 248 248 249 248 249 248 245 245 245 243 243 243 242 242 243 243 242 242 242 243 244 244 245 245 245 247 248 249 250 251 251 248 249 252 251 250 253 255 256 260 262 263 263 263 260 256 253 247 241 244 249 234 196 172 169 185 196 206 242 280 309 20 58 50 53 48 41 45 42 40 44 49 48
260 259 259 259 258 257 255 254 253 252 253 252 252 251 249 248 248 248 247 248 249 246 244 245 244 243 242 241 241 242 243 242 242 241 241 243 243 242 243 242 243 245 247 247 248 250 249 249 253 252 248 251 253 252 254 257 258 258 258 257 255 252 249 245 240 243 249 242 227 218 229 242 241 242 260 274 287 311 324 322 318 316 325 333 343 352 358 2
262 260 259 258 258 257 256 255 254 253 252 251 251 251 250 248 247 247 246 246 248 248 244 243 244 244 242 241 240 240 241 242 242 240 239 241 242 241 241 241 241 242 245 246 246 248 250 250 252 250 246 246 249 249 249 252 254 255 254 253 254 253 251 253 247 241 245 248 248 242 242 254 261 265 272 275 283 287 292 295 298 304 310 317 324 334 344 348
267 264 262 260 258 257 256 255 255 254 253 251 250 250 249 248 247 246 246 245 247 248 245 241 243 245 244 241 239 240 241 242 242 240 239 240 241 239 239 241 241 241 241 244 245 247 250 251 250 248 245 244 247 249 248 249 251 252 250 248 250 251 251 255 256 252 248 246 250 252 249 254 262 268 272 276 282 282 281 284 289 297 302 307 315 324 333 336
274 270 267 264 261 259 256 254 254 255 254 252 251 250 249 248 247 246 245 244 245 247 246 242 241 243 244 243 240 239 240 241 241 241 240 240 240 238 237 239 240 240 239 241 243 247 250 250 248 246 244 242 244 246 247 247 248 249 247 244 246 248 248 253 259 261 257 253 254 254 251 252 258 265 268 270 274 277 279 281 286 291 294 299 308 316 322 322
281 277 273 269 266 264 260 254 252 253 254 253 252 250 249 248 247 246 244 243 244 245 245 244 241 241 243 243 241 239 240 241 241 240 239 239 239 238 236 237 238 239 239 239 239 243 247 248 245 243 242 240 240 242 245 246 246 248 247 244 244 244 245 250 257 261 260 260 259 254 249 247 247 254 258 260 266 271 274 279 285 285 281 282 291 303 304 302
283 282 279 275 270 268 265 259 253 251 252 253 252 251 250 248 247 246 244 243 243 243 243 243 243 240 240 241 241 239 239 241 240 239 239 239 239 239 237 236 237 238 238 238 237 240 245 247 245 244 243 240 239 242 245 245 245 248 248 246 245 243 243 245 251 257 260 262 260 254 250 248 244 246 251 252 257 264 268 273 276 277 276 275 278 285 289 288
282 282 282 280 275 272 270 265 259 254 251 252 252 251 250 249 247 245 244 242 242 242 242 242 242 241 239 239 240 239 239 240 240 239 239 239 239 239 238 237 236 237 237 238 238 240 245 247 247 247 243 240 241 243 245 246 247 249 250 250 248 245 243 242 245 251 257 261 259 254 252 252 248 247 252 254 253 256 262 266 267 268 271 273 275 279 280 279
280 280 280 280 279 276 273 269 266 260 254 251 251 250 249 248 246 244 242 241 241 241 241 241 241 240 239 238 238 238 238 239 239 239 239 239 239 238 238 238 237 237 237 238 240 242 245 248 248 247 244 241 244 244 244 246 248 249 250 251 250 248 245 242 242 245 248 253 257 256 255 255 251 250 254 256 255 255 258 262 263 262 263 266 270 274 275 276
277 278 278 278 278 278 276 273 270 265 259 254 250 249 248 246 246 244 241 240 241 241 241 240 240 239 239 238 237 237 238 239 239 239 238 238 238 238 238 238 237 237 236 238 241 243 246 248 248 246 244 242 244 245 243 245 249 250 249 249 249 248 246 244 243 241 241 247 252 254 254 256 255 252 254 255 257 260 261 262 263 264 263 263 265 266 269 273
275 275 275 275 276 276 277 275 272 268 264 258 252 248 247 245 244 243 241 240 241 242 241 241 240 239 238 238 237 236 237 238 238 238 238 238 238 237 237 237 236 236 235 236 238 239 241 244 244 244 244 243 244 246 244 244 247 247 246 245 245 245 244 244 243 241 240 243 248 248 250 258 259 255 254 257 259 263 264 265 267 268 268 266 264 264 266 268
273 273 273 273 273 274 274 274 272 270 268 264 256 249 247 245 244 245 243 241 241 241 241 241 240 238 238 237 236 235 235 236 237 238 238 238 238 237 238 238 237 237 236 236 236 237 239 241 243 243 242 242 241 244 243 241 242 243 243 241 240 241 243 243 242 242 242 243 246 248 249 256 260 258 259 261 262 262 265 268 270 272 273 272 269 269 269 269
271 271 271 271 271 270 271 271 270 269 268 267 262 254 250 250 250 248 245 242 242 241 240 240 239 238 237 237 236 234 234 234 235 236 237 237 238 238 238 238 238 237 237 237 237 238 239 241 243 242 241 240 238 238 240 239 239 241 242 241 241 241 241 241 240 241 242 243 247 250 250 254 260 262 262 263 264 263 264 267 269 271 273 273 272 272 273 274
269 269 268 269 269 267 267 267 268 268 267 267 266 261 258 258 256 252 246 243 242 241 239 239 239 239 238 237 236 234 234 234 234 234 235 235 236 237 237 237 237 237 237 237 237 238 239 240 241 241 241 241 239 237 238 238 237 238 240 240 239 239 238 240 239 240 242 244 246 249 249 251 258 263 262 262 264 264 264 266 269 272 273 274 274 274 275 276
268 267 267 267 266 265 264 264 265 266 265 265 266 265 262 261 261 256 248 243 243 241 239 238 238 238 238 237 236 235 234 234 233 233 233 234 234 235 236 237 237 236 236 237 237 237 237 237 238 240 239 239 239 237 238 239 238 238 239 239 239 240 240 241 242 242 244 244 245 247 248 249 253 260 261 261 262 265 266 267 269 272 274 276 278 279 280 281
266 266 265 264 263 262 262 262 262 263 264 264 264 262 261 261 261 258 249 243 243 242 240 238 237 237 237 237 236 235 233 233 233 232 232 233 233 234 235 236 236 236 236 236 236 236 237 236 238 239 239 238 238 238 238 240 241 241 240 240 243 245 245 245 246 245 245 244 244 245 248 248 250 255 259 260 262 265 266 268 269 271 273 276 278 280 282 283
265 264 263 262 261 260 259 259 260 261 262 262 260 258 258 258 259 258 253 247 244 242 241 239 236 236 236 236 236 235 233 233 232 231 231 231 231 232 233 234 235 235 235 235 235 234 235 236 237 240 240 239 240 240 240 242 244 242 241 242 245 247 247 246 247 246 245 244 244 245 248 250 250 252 256 259 260 262 264 265 267 269 271 273 276 277 279 280
263 262 261 260 259 257 257 257 258 258 259 258 257 255 255 255 258 259 257 252 247 243 241 239 237 235 234 235 235 235 234 233 232 231 230 230 229 230 231 232 233 234 234 235 234 234 233 234 235 238 240 240 241 243 242 243 244 243 241 241 244 245 245 245 245 245 244 243 243 244 246 247 249 251 253 255 256 258 260 262 265 267 269 271 272 274 275 277
262 260 259 258 257 255 254 254 255 255 255 255 254 253 253 253 256 259 258 256 252 247 242 240 238 235 233 234 234 234 233 233 232 231 230 229 228 229 230 231 231 232 233 234 234 234 234 234 234 236 238 239 241 243 242 241 242 242 240 240 241 242 243 244 245 244 244 242 242 242 241 242 245 249 251 252 253 255 258 261 263 266 267 269 270 271 273 274
260 258 257 256 255 254 252 251 252 252 252 252 251 251 251 252 254 257 259 258 256 252 246 242 239 235 233 233 233 233 233 232 232 231 229 228 228 228 229 230 230 231 232 233 233 234 233 233 233 235 237 238 239 240 239 240 242 242 241 241 242 244 245 247 248 247 246 245 244 243 242 241 245 249 251 253 254 256 258 260 262 264 265 267 268 270 272 274
259 257 255 254 253 252 250 249 249 249 250 249 248 249 250 251 253 256 259 259 258 255 250 244 240 236 233 233 232 233 233 232 232 231 229 228 227 228 229 229 229 230 231 232 232 233 233 233 232 234 236 236 237 237 238 238 241 242 243 244 245 248 249 249 249 248 248 249 248 248 247 245 247 250 253 255 257 257 258 259 260 262 263 266 268 270 272 274
257 255 254 252 251 250 248 247 246 246 247 247 247 248 249 250 251 254 257 257 257 256 252 246 241 237 234 233 233 233 233 232 231 231 230 228 227 227 229 229 229 230 230 231 231 232 233 233 233 233 235 235 236 237 238 240 243 245 246 246 247 248 249 248 248 248 249 250 250 250 250 248 248 251 253 254 254 255 255 257 258 260 262 264 266 269 271 273
255 254 252 250 249 248 246 245 244 244 245 245 246 247 248 249 251 253 255 256 257 257 254 249 244 239 235 234 233 232 232 231 231 230 230 228 227 227 228 229 229 229 229 229 230 232 232 232 232 232 234 235 237 239 242 243 245 246 246 246 247 247 248 248 247 247 249 249 249 248 246 245 245 247 250 251 252 253 254 255 257 259 261 263 265 268 270 272
253 251 250 248 247 246 245 244 243 242 243 244 245 247 248 250 251 253 254 256 257 257 256 252 247 242 237 235 233 232 231 231 230 230 229 228 227 227 228 228 229 228 228 228 229 230 231 231 231 232 233 235 236 237 239 240 241 242 243 243 243 244 244 245 245 245 246 246 246 245 244 243 244 245 247 250 251 252 254 256 257 259 261 264 266 268 270 272
250 249 248 246 244 244 244 243 242 243 243 244 246 247 248 250 251 253 254 256 257 257 256 254 250 245 240 236 233 231 231 230 230 230 229 229 227 227 228 228 228 227 227 227 228 229 230 231 232 232 233 234 234 234 235 236 237 239 239 240 240 241 242 243 244 245 244 245 245 245 245 245 245 246 247 249 251 253 255 258 259 261 263 265 267 268 268 270
248 246 246 244 242 242 244 244 243 243 243 244 246 247 248 250 251 253 254 256 257 257 256 254 251 247 243 238 233 231 230 230 229 229 229 229 228 228 228 228 227 227 226 227 227 228 229 229 230 231 232 232 233 234 235 236 237 237 238 238 239 241 242 244 245 245 245 245 246 245 246 246 246 246 248 250 252 254 256 259 261 263 264 266 266 266 267 268
246 245 244 244 242 241 243 245 245 244 244 244 245 247 248 250 252 253 253 254 255 256 256 254 252 248 245 240 234 231 230 229 228 227 228 228 227 227 228 228 227 226 226 226 227 227 228 227 228 230 230 231 232 233 235 237 238 238 238 239 240 241 242 244 245 245 245 246 245 245 246 247 247 248 250 252 254 255 257 259 261 262 264 265 265 266 267 268
244 244 244 244 243 242 242 244 245 246 245 245 245 246 247 249 250 251 251 252 252 253 254 254 252 249 245 241 236 231 229 228 227 226 226 227 227 226 227 228 227 226 226 226 227 227 227 227 228 229 229 229 231 232 233 236 238 238 239 240 241 242 243 245 246 247 247 248 247 247 248 249 249 251 253 254 255 256 257 258 259 261 262 263 264 265 267 268
243 242 242 242 243 242 241 242 243 244 244 243 243 245 246 248 248 248 248 249 250 251 252 252 251 248 245 242 236 231 229 227 226 226 225 225 226 226 227 227 227 226 226 226 227 227 226 226 227 229 229 229 231 232 233 235 237 237 238 239 241 243 245 247 248 249 249 249 248 248 250 251 251 252 254 255 256 257 258 258 259 259 261 262 263 266 267 268
242 241 241 241 241 240 239 239 239 240 241 241 241 242 244 245 246 245 246 246 247 248 249 249 249 247 244 242 236 231 228 226 225 225 225 225 224 225 226 227 226 226 225 226 226 226 226 226 227 228 229 229 230 233 234 235 236 237 237 239 241 244 245 247 248 249 249 250 250 250 251 252 252 253 255 257 258 258 259 259 259 260 261 262 264 265 267 267
Height
10991 10991 10992 10993 10993 10994 10994 10995 10995 10995 10995 10995 10995 10995 10996 10996 10996 10996 10996 10996 10995 10995 10995 10994 10993 10992 10992 10991 10990 10990 10989 10988 10987 10985 10984 10983 10982 10981 10979 10978 10976 10975 10974 10972 10971 10969 10967 10965 10963 10961 10958 10955 10954 10952 10951 10950 10950 10951 10952 10952 10954 10956 10958 10959 10960 10961 10962 10963 10964 10966 10967 10968 10968 10969 10970 10971 10972 10972 10973 10973 10973 10973 10973 10973 10973 10973 10974 10974
10988 10989 10990 10990 10991 10992 10992 10993 10994 10994 10994 10994 10994 10994 10994 10995 10995 10995 10995 10995 10995 10995 10995 10994 10993 10993 10992 10991 10990 10990 10989 10989 10988 10987 10985 10984 10984 10983 10981 10979 10978 10976 10975 10974 10972 10971 10969 10967 10965 10963 10960 10957 10955 10953 10951 10950 10950 10950 10951 10952 10954 10955 10958 10959 10960 10961 10961 10962 10964 10965 10966 10967 10967 10968 10969 10970 10971 10971 10972 10972 10972 10972 10972 10972 10972 10972 10972 10973
10986 10986 10987 10988 10988 10989 10990 10991 10991 10992 10993 10993 10993 10993 10993 10993 10994 10994 10995 10995 10994 10994 10994 10994 10993 10993 10992 10991 10990 10990 10989 10989 10988 10988 10987 10985 10985 10984 10983 10981 10979 10978 10976 10975 10974 10972 10971 10969 10967 10965 10963 10960 10957 10954 10953 10951 10950 10950 10951 10953 10954 10955 10957 10959 10960 10961 10961 10962 10963 10964 10965 10966 10967 10968 10969 10970 10970 10970 10971 10971 10972 10972 10972 10972 10972 10972 10972 10972
10983 10984 10984 10985 10986 10986 10987 10988 10989 10990 10990 10991 10991 10991 10992 10992 10992 10993 10993 10994 10994 10993 10993 10994 10993 10993 10992 10991 10990 10990 10989 10989 10989 10988 10987 10986 10985 10985 10984 10983 10981 10979 10978 10976 10975 10973 10972 10971 10969 10967 10966 10963 10959 10956 10954 10952 10951 10951 10952 10953 10954 10954 10957 10958 10959 10960 10961 10962 10963 10964 10965 10967 10968 10969 10969 10969 10970 10970 10970 10971 10971 10972 10972 10972 10972 10972 10972 10972
10980 10981 10981 10982 10983 10984 10984 10985 10986 10987 10987 10988 10989 10990 10990 10990 10990 10991 10991 10992 10993 10993 10992 10993 10993 10992 10992 10991 10990 10990 10989 10989 10989 10988 10988 10987 10986 10985 10985 10984 10983 10981 10979 10978 10976 10975 10973 10972 10970 10969 10967 10966 10963 10960 10956 10953 10952 10952 10953 10954 10954 10955 10957 10958 10958 10960 10961 10962 10963 10964 10966 10967 10968 10969 10969 10969 10969 10969 10970 10971 10971 10972 10972 10972 10972 10972 10972 10972
10977 10977 10978 10979 10980 10980 10981 10982 10983 10983 10984 10985 10986 10987 10988 10988 10988 10989 10989 10990 10991 10991 10991 10991 10992 10992 10991 10991 10990 10989 10989 10988 10988 10988 10988 10987 10986 10986 10985 10985 10984 10982 10981 10979 10978 10976 10975 10973 10971 10970 10968 10967 10965 10962 10958 10955 10954 10954 10954 10955 10955 10955 10957 10957 10958 10960 10961 10962 10963 10965 10966 10967 10968 10968 10969 10969 10970 10970 10970 10971 10971 10972 10972 10972 10972 10972 10972 10973
10973 10974 10974 10975 10976 10977 10978 10979 10979 10980 10981 10982 10983 10984 10985 10986 10986 10987 10987 10988 10988 10989 10990 10990 10990 10990 10990 10990 10989 10988 10988 10988 10987 10988 10988 10987 10987 10986 10986 10985 10985 10983 10982 10981 10979 10978 10976 10974 10972 10971 10969 10967 10965 10963 10960 10958 10956 10956 10957 10957 10956 10956 10957 10957 10958 10960 10961 10962 10964 10965 10966 10967 10968 10968 10968 10969 10970 10970 10971 10971 10971 10971 10971 10971 10972 10972 10972 10972
10969 10970 10971 10971 10972 10973 10974 10975 10976 10977 10978 10979 10980 10981 10982 10983 10984 10984 10985 10985 10986 10987 10988 10988 10988 10988 10989 10989 10988 10987 10987 10987 10986 10987 10987 10987 10987 10986 10986 10985 10985 10984 10983 10982 10980 10979 10977 10976 10974 10972 10970 10968 10967 10965 10962 10961 10960 10959 10959 10959 10958 10957 10957 10957 10958 10960 10961 10962 10964 10965 10966 10967 10968 10968 10969 10970 10970 10971 10971 10971 10970 10970 10971 10971 10971 10972 10972 10972
10965 10965 10966 10967 10968 10969 10970 10971 10972 10973 10974 10975 10976 10977 10979 10980 10981 10982 10982 10983 10983 10984 10985 10986 10986 10986 10986 10987 10987 10986 10986 10986 10985 10986 10986 10986 10987 10986 10986 10986 10985 10985 10984 10983 10981 10980 10979 10977 10976 10974 10972 10971 10969 10968 10966 10964 10963 10962 10962 10962 10960 10957 10957 10958 10959 10960 10961 10963 10964 10966 10966 10967 10968 10969 10969 10970 10970 10971 10971 10970 10970 10970 10970 10971 10971 10971 10971 10971
10960 10960 10962 10963 10964 10965 10966 10967 10968 10969 10970 10972 10973 10974 10975 10975 10977 10978 10979 10980 10980 10981 10982 10983 10984 10984 10984 10984 10985 10985 10985 10984 10984 10984 10985 10985 10986 10986 10986 10986 10985 10985 10984 10983 10982 10981 10980 10979 10977 10976 10974 10973 10972 10970 10969 10967 10966 10965 10965 10963 10960 10957 10957 10959 10960 10961 10962 10964 10965 10966 10967 10967 10968 10969 10969 10970 10970 10970 10970 10970 10970 10970 10970 10971 10971 10971 10971 10971
10954 10955 10956 10957 10959 10960 10961 10962 10963 10965 10967 10968 10970 10970 10971 10971 10973 10974 10975 10976 10976 10977 10978 10979 10980 10981 10981 10981 10981 10983 10982 10981 10982 10983 10983 10984 10985 10985 10986 10986 10985 10985 10985 10984 10983 10982 10981 10980 10979 10978 10976 10975 10974 10972 10971 10970 10969 10968 10966 10963 10959 10957 10959 10960 10962 10963 10964 10964 10965 10966 10967 10967 10968 10969 10969 10969 10969 10969 10969 10970 10970 10970 10971 10971 10971 10972 10972 10972
10948 10949 10950 10952 10953 10954 10956 10957 10958 10960 10962 10964 10966 10967 10967 10968 10969 10970 10971 10971 10972 10973 10974 10975 10976 10977 10978 10977 10979 10980 10979 10979 10980 10981 10982 10982 10983 10984 10985 10985 10985 10984 10984 10984 10984 10983 10982 10981 10980 10979 10978 10976 10975 10974 10972 10971 10971 10970 10966 10962 10959 10959 10960 10962 10963 10965 10965 10965 10966 10966 10966 10967 10968 10969 10968 10969 10969 10969 10969 10970 10970 10971 10971 10971 10972 10972 10972 10972
10942 10943 10944 10945 10947 10948 10949 10951 10953 10955 10957 10960 10962 10962 10962 10963 10965 10966 10966 10967 10967 10968 10969 10970 10971 10973 10974 10974 10976 10977 10975 10976 10977 10979 10980 10980 10981 10983 10984 10984 10984 10984 10984 10984 10983 10983 10983 10982 10981 10980 10978 10977 10976 10975 10973 10973 10973 10972 10966 10962 10960 10961 10963 10964 10966 10967 10967 10967 10967 10967 10967 10968 10969 10969 10969 10969 10969 10969 10970 10970 10971 10971 10971 10972 10972 10972 10972 10972
10934 10935 10937 10938 10940 10941 10943 10944 10946 10948 10952 10955 10957 10957 10958 10959 10960 10961 10962 10962 10963 10964 10965 10966 10967 10970 10970 10971 10974 10972 10971 10974 10976 10977 10978 10978 10978 10980 10982 10983 10983 10983 10983 10983 10983 10983 10983 10982 10981 10980 10979 10978 10977 10976 10975 10974 10974 10973 10968 10964 10963 10964 10966 10967 10968 10968 10968 10969 10969 10968 10969 10969 10970 10969 10969 10969 10970 10970 10971 10971 10971 10971 10972 10972 10972 10973 10973 10973
10927 10928 10929 10931 10932 10934 10935 10937 10939 10942 10945 10948 10951 10952 10951 10953 10955 10957 10957 10958 10959 10960 10961 10962 10964 10966 10966 10969 10971 10968 10968 10972 10974 10975 10975 10975 10975 10977 10980 10981 10981 10981 10982 10982 10982 10982 10982 10982 10981 10981 10980 10978 10977 10977 10976 10975 10974 10973 10970 10967 10966 10967 10969 10969 10969 10969 10969 10969 10969 10970 10970 10970 10971 10970 10970 10971 10971 10971 10972 10972 10972 10971 10972 10972 10973 10973 10973 10973
10918 10919 10921 10922 10924 10926 10927 10928 10931 10934 10939 10942 10944 10945 10945 10946 10949 10951 10952 10953 10954 10956 10957 10958 10960 10961 10961 10966 10967 10964 10966 10970 10971 10971 10971 10972 10972 10974 10977 10978 10979 10980 10980 10981 10980 10981 10982 10981 10981 10981 10980 10979 10978 10977 10976 10975 10974 10974 10973 10971 10970 10971 10972 10971 10971 10970 10970 10971 10970 10970 10970 10971 10971 10971 10971 10972 10972 10972 10972 10972 10972 10972 10972 10972 10973 10974 10974 10974
10909 10910 10912 10914 10916 10917 10919 10920 10922 10926 10931 10934 10937 10938 10937 10938 10942 10944 10945 10947 10949 10951 10953 10953 10955 10956 10956 10961 10962 10960 10963 10966 10967 10967 10967 10968 10968 10970 10973 10974 10976 10978 10978 10978 10978 10979 10980 10980 10980 10980 10980 10979 10978 10978 10977 10976 10975 10975 10974 10973 10972 10972 10973 10973 10973 10972 10972 10972 10972 10971 10971 10972 10972 10972 10973 10973 10973 10973 10973 10973 10973 10973 10973 10973 10974 10975 10975 10975
10901 10902 10903 10904 10906 10908 10910 10911 10913 10917 10922 10926 10929 10930 10930 10930 10933 10937 10938 10940 10943 10945 10947 10948 10950 10950 10951 10956 10957 10956 10959 10962 10963 10963 10963 10965 10966 10967 10969 10971 10974 10976 10976 10976 10975 10977 10978 10978 10978 10979 10979 10979 10978 10978 10977 10976 10976 10976 10976 10975 10974 10973 10974 10974 10974 10974 10974 10974 10973 10973 10973 10973 10973 10974 10974 10974 10974 10974 10974 10973 10974 10974 10974 10974 10975 10976 10976 10976
10892 10893 10893 10895 10897 10899 10901 10902 10904 10907 10912 10918 10920 10921 10922 10923 10925 10928 10930 10933 10936 10939 10941 10942 10944 10945 10945 10949 10953 10952 10955 10958 10958 10958 10960 10962 10964 10964 10966 10969 10971 10973 10974 10972 10973 10974 10976 10976 10976 10977 10978 10978 10978 10977 10977 10976 10976 10976 10976 10976 10975 10974 10974 10975 10975 10975 10975 10974 10974 10974 10974 10974 10974 10974 10975 10975 10974 10974 10975 10974 10974 10974 10974 10975 10976 10977 10977 10977
10882 10883 10884 10885 10887 10889 10891 10892 10894 10898 10902 10908 10911 10912 10913 10915 10917 10920 10921 10924 10929 10932 10934 10936 10938 10938 10938 10942 10947 10948 10950 10953 10953 10953 10956 10959 10960 10961 10963 10966 10967 10969 10970 10969 10969 10972 10974 10973 10973 10975 10976 10976 10977 10977 10976 10976 10976 10976 10975 10976 10975 10975 10974 10974 10975 10975 10975 10974 10974 10975 10975 10975 10975 10975 10975 10975 10975 10975 10975 10975 10975 10975 10975 10976 10977 10977 10978 10978
10871 10873 10873 10874 10876 10879 10881 10882 10883 10888 10891 10897 10902 10903 10904 10906 10909 10911 10912 10915 10920 10924 10926 10929 10931 10931 10931 10936 10941 10943 10945 10948 10948 10947 10951 10954 10955 10957 10959 10962 10964 10965 10965 10965 10967 10969 10971 10969 10969 10972 10974 10975 10976 10976 10975 10975 10975 10975 10975 10975 10975 10975 10974 10974 10974 10975 10974 10974 10974 10975 10975 10976 10975 10975 10975 10975 10975 10975 10975 10976 10976 10976 10976 10976 10977 10978 10978 10978
10861 10862 10862 10863 10865 10868 10871 10871 10873 10877 10881 10886 10891 10893 10895 10897 10899 10902 10904 10904 10909 10916 10917 10920 10925 10923 10923 10930 10934 10938 10940 10942 10941 10942 10945 10949 10951 10953 10955 10958 10959 10959 10960 10962 10964 10966 10966 10964 10965 10970 10972 10972 10974 10974 10974 10974 10974 10974 10974 10974 10974 10974 10974 10974 10974 10974 10974 10974 10974 10975 10975 10976 10976 10976 10976 10976 10975 10975 10976 10976 10977 10977 10977 10977 10977 10978 10978 10978
10853 10853 10852 10853 10854 10856 10860 10861 10862 10866 10869 10874 10879 10883 10886 10888 10890 10893 10896 10895 10897 10906 10909 10911 10917 10914 10915 10924 10928 10932 10934 10933 10934 10937 10940 10943 10946 10948 10950 10953 10954 10954 10957 10960 10960 10960 10960 10959 10962 10967 10969 10970 10971 10972 10972 10972 10972 10972 10972 10973 10973 10974 10974 10974 10974 10973 10973 10973 10973 10974 10975 10976 10976 10976 10976 10976 10976 10976 10976 10976 10977 10977 10977 10977 10977 10977 10977 10977
10845 10844 10844 10843 10843 10845 10849 10850 10852 10855 10858 10862 10866 10871 10875 10878 10882 10884 10887 10887 10883 10892 10903 10903 10905 10904 10908 10917 10923 10926 10925 10925 10928 10932 10935 10937 10939 10943 10945 10947 10949 10950 10953 10955 10956 10955 10954 10955 10960 10965 10967 10967 10968 10970 10970 10969 10970 10970 10970 10971 10971 10972 10973 10973 10974 10973 10973 10972 10972 10973 10974 10975 10975 10975 10976 10976 10976 10976 10976 10976 10977 10977 10977 10977 10977 10976 10975 10975
10836 10836 10835 10834 10834 10835 10838 10840 10841 10844 10847 10850 10853 10858 10863 10867 10872 10875 10878 10878 10871 10878 10893 10896 10893 10894 10901 10910 10916 10917 10916 10918 10921 10923 10929 10931 10932 10937 10939 10941 10944 10946 10948 10949 10951 10951 10948 10952 10958 10961 10963 10964 10965 10966 10967 10967 10968 10968 10968 10968 10969 10970 10971 10971 10972 10972 10972 10972 10972 10972 10972 10973 10973 10974 10975 10975 10975 10975 10976 10976 10976 10977 10977 10977 10976 10976 10975 10974
10828 10828 10827 10827 10826 10825 10828 10830 10831 10834 10836 10839 10842 10846 10851 10854 10861 10865 10868 10870 10863 10862 10877 10887 10886 10885 10891 10902 10908 10909 10911 10912 10911 10916 10924 10924 10925 10930 10934 10937 10940 10941 10943 10944 10947 10947 10943 10948 10955 10957 10959 10960 10961 10963 10963 10964 10965 10965 10965 10966 10967 10968 10969 10969 10969 10970 10971 10971 10971 10971 10971 10971 10971 10972 10973 10974 10974 10974 10975 10975 10976 10976 10976 10976 10976 10975 10975 10974
10819 10820 10819 10819 10818 10817 10819 10821 10823 10825 10826 10828 10832 10835 10838 10842 10849 10854 10857 10860 10854 10849 10861 10875 10879 10877 10881 10892 10900 10903 10903 10900 10901 10910 10917 10916 10917 10923 10928 10932 10934 10935 10937 10939 10943 10943 10938 10943 10950 10953 10954 10956 10958 10959 10958 10960 10961 10960 10961 10964 10965 10966 10967 10967 10967 10968 10969 10970 10970 10970 10970 10969 10969 10970 10971 10972 10973 10973 10973 10974 10975 10975 10976 10975 10975 10975 10974 10974
10811 10811 10810 10810 10811 10809 10809 10811 10816 10817 10816 10817 10821 10824 10827 10830 10837 10842 10846 10849 10842 10837 10848 10860 10867 10872 10874 10881 10890 10896 10894 10890 10895 10903 10906 10907 10910 10916 10922 10926 10927 10929 10931 10935 10939 10937 10932 10936 10945 10947 10949 10952 10953 10952 10953 10956 10957 10956 10959 10962 10963 10965 10966 10966 10965 10965 10966 10968 10967 10967 10968 10968 10968 10968 10969 10970 10971 10971 10972 10973 10973 10974 10974 10975 10974 10974 10974 10974
10802 10802 10802 10801 10803 10802 10799 10802 10808 10809 10807 10807 10811 10815 10816 10820 10827 10830 10834 10837 10827 10826 10838 10846 10855 10863 10866 10870 10878 10885 10885 10882 10887 10894 10895 10899 10905 10909 10915 10918 10920 10922 10926 10931 10933 10930 10926 10931 10939 10942 10945 10948 10947 10946 10949 10952 10951 10951 10956 10959 10961 10963 10964 10965 10964 10963 10965 10965 10964 10964 10966 10966 10967 10967 10968 10969 10970 10970 10971 10971 10972 10972 10972 10973 10974 10974 10973 10973
10794 10794 10793 10792 10793 10794 10791 10794 10799 10801 10799 10798 10801 10804 10807 10811 10815 10819 10824 10821 10812 10815 10827 10835 10842 10851 10857 10862 10867 10873 10874 10872 10877 10884 10887 10892 10897 10902 10906 10909 10913 10916 10921 10926 10927 10925 10923 10926 10933 10939 10942 10943 10941 10942 10946 10948 10946 10948 10953 10956 10958 10960 10962 10963 10963 10963 10964 10962 10959 10961 10964 10964 10965 10965 10966 10967 10969 10969 10969 10970 10970 10970 10970 10971 10972 10972 10972 10972
10786 10786 10785 10783 10784 10784 10784 10787 10791 10791 10790 10791 10791 10793 10797 10800 10804 10810 10811 10803 10799 10807 10817 10823 10831 10839 10846 10851 10856 10861 10862 10863 10869 10876 10879 10883 10888 10893 10898 10902 10907 10911 10916 10921 10923 10921 10919 10922 10928 10934 10937 10937 10936 10938 10942 10943 10942 10945 10950 10952 10954 10956 10958 10960 10961 10962 10963 10959 10955 10958 10962 10962 10963 10963 10964 10965 10966 10967 10968 10968 10968 10968 10968 10968 10970 10970 10970 10970
10777 10777 10777 10776 10775 10774 10776 10780 10782 10780 10780 10782 10783 10783 10787 10790 10795 10799 10794 10786 10791 10800 10806 10813 10821 10828 10834 10839 10845 10851 10852 10854 10861 10866 10870 10873 10878 10884 10889 10894 10899 10903 10910 10915 10917 10917 10917 10918 10922 10926 10931 10932 10932 10933 10937 10939 10938 10942 10946 10948 10950 10952 10954 10957 10958 10959 10960 10957 10954 10957 10960 10960 10959 10961 10962 10963 10963 10964 10965 10965 10965 10965 10966 10967 10968 10968 10967 10967
10769 10768 10768 10768 10767 10766 10767 10770 10771 10770 10770 10771 10775 10776 10777 10782 10787 10784 10777 10777 10785 10792 10796 10804 10811 10817 10822 10826 10834 10841 10842 10844 10850 10855 10859 10863 10869 10875 10879 10884 10890 10895 10901 10905 10907 10910 10910 10909 10912 10919 10924 10927 10928 10929 10932 10934 10934 10936 10940 10942 10945 10947 10949 10952 10953 10954 10955 10953 10952 10955 10959 10957 10954 10957 10960 10960 10960 10961 10961 10961 10961 10961 10962 10963 10965 10965 10965 10965
10759 10759 10759 10759 10760 10759 10758 10760 10760 10761 10761 10762 10766 10769 10771 10776 10777 10769 10765 10770 10778 10783 10789 10794 10799 10806 10810 10814 10821 10828 10831 10835 10840 10845 10850 10855 10861 10866 10871 10876 10883 10888 10892 10896 10899 10903 10904 10903 10907 10913 10917 10920 10923 10924 10925 10927 10927 10928 10931 10935 10939 10942 10945 10946 10947 10949 10949 10949 10950 10953 10958 10954 10949 10953 10957 10956 10956 10957 10957 10957 10957 10957 10957 10958 10960 10961 10961 10961
10749 10749 10749 10749 10752 10752 10749 10749 10751 10752 10752 10753 10756 10762 10766 10767 10763 10758 10759 10764 10770 10776 10780 10783 10789 10794 10798 10802 10809 10815 10820 10824 10828 10833 10840 10846 10853 10858 10863 10868 10874 10879 10883 10888 10894 10897 10899 10901 10903 10905 10908 10911 10915 10916 10915 10917 10920 10922 10924 10929 10936 10939 10939 10939 10941 10943 10944 10946 10948 10951 10954 10952 10947 10950 10953 10952 10952 10953 10953 10954 10953 10953 10953 10953 10955 10956 10957 10957
10739 10739 10739 10740 10742 10742 10741 10740 10740 10743 10744 10743 10747 10755 10758 10755 10751 10750 10753 10756 10760 10766 10770 10774 10779 10784 10787 10792 10797 10804 10809 10811 10816 10823 10830 10837 10844 10848 10853 10857 10863 10869 10874 10880 10885 10889 10893 10897 10894 10895 10900 10903 10906 10908 10907 10909 10915 10917 10918 10925 10931 10930 10929 10931 10935 10938 10940 10943 10946 10947 10950 10949 10946 10947 10948 10948 10949 10948 10950 10951 10950 10950 10949 10948 10949 10951 10952 10953
10729 10728 10729 10730 10731 10731 10731 10730 10730 10733 10735 10735 10740 10746 10746 10744 10742 10741 10744 10747 10751 10756 10761 10765 10770 10773 10776 10781 10786 10793 10797 10798 10805 10814 10820 10827 10834 10839 10844 10849 10853 10859 10865 10869 10874 10879 10885 10887 10884 10885 10892 10894 10895 10899 10899 10902 10908 10911 10915 10920 10920 10919 10922 10927 10931 10934 10937 10941 10943 10944 10945 10946 10946 10944 10943 10944 10945 10945 10946 10947 10948 10947 10945 10943 10944 10945 10946 10947
10718 10717 10718 10720 10721 10720 10721 10721 10721 10723 10725 10728 10734 10736 10735 10735 10732 10730 10734 10739 10742 10747 10751 10755 10760 10763 10766 10770 10775 10781 10785 10787 10794 10803 10810 10818 10826 10831 10835 10839 10843 10849 10854 10857 10864 10870 10875 10877 10876 10877 10883 10884 10884 10888 10893 10897 10903 10908 10912 10912 10910 10913 10920 10924 10927 10931 10934 10937 10939 10939 10940 10943 10945 10942 10939 10940 10942 10942 10942 10944 10944 10943 10941 10939 10940 10940 10941 10942
10708 10706 10707 10709 10709 10709 10710 10710 10711 10713 10716 10721 10725 10725 10725 10723 10720 10721 10725 10730 10734 10739 10742 10746 10750 10753 10756 10760 10763 10768 10773 10775 10782 10791 10799 10808 10817 10820 10824 10828 10833 10838 10841 10846 10853 10859 10864 10868 10869 10870 10873 10874 10875 10881 10890 10896 10898 10902 10904 10904 10905 10910 10916 10919 10922 10927 10929 10932 10934 10935 10937 10940 10941 10939 10936 10937 10939 10938 10939 10939 10939 10940 10939 10937 10936 10937 10937 10937
10697 10695 10696 10697 10697 10699 10699 10699 10701 10703 10707 10712 10713 10713 10714 10712 10710 10712 10716 10720 10725 10730 10733 10736 10739 10743 10746 10748 10751 10755 10761 10765 10771 10780 10788 10798 10806 10809 10811 10816 10822 10826 10830 10835 10842 10848 10853 10859 10863 10863 10863 10866 10870 10879 10891 10893 10889 10891 10895 10897 10900 10904 10908 10913 10916 10920 10924 10927 10930 10931 10934 10937 10935 10933 10933 10934 10935 10934 10935 10935 10935 10936 10935 10934 10933 10933 10933 10934
10685 10683 10684 10684 10685 10687 10688 10689 10690 10693 10697 10701 10702 10702 10703 10702 10702 10703 10706 10711 10716 10719 10724 10727 10730 10734 10736 10737 10739 10742 10749 10754 10761 10769 10779 10788 10795 10798 10800 10805 10811 10815 10818 10825 10833 10840 10845 10852 10856 10853 10853 10862 10870 10877 10884 10881 10876 10880 10886 10890 10893 10896 10900 10905 10909 10914 10918 10921 10924 10926 10929 10931 10929 10928 10929 10929 10929 10930 10932 10932 10932 10932 10931 10929 10929 10929 10929 10929
10671 10671 10671 10672 10672 10674 10677 10679 10679 10681 10686 10690 10691 10690 10692 10693 10693 10694 10697 10703 10706 10709 10715 10718 10720 10723 10725 10726 10727 10729 10737 10745 10751 10759 10769 10778 10784 10788 10789 10793 10800 10803 10809 10818 10826 10832 10836 10841 10845 10844 10848 10860 10865 10865 10869 10868 10866 10871 10878 10884 10887 10888 10894 10900 10906 10910 10911 10914 10918 10920 10924 10927 10925 10924 10924 10924 10925 10927 10928 10928 10928 10928 10926 10925 10924 10925 10925 10925
10657 10656 10658 10660 10659 10660 10665 10667 10668 10671 10675 10678 10679 10680 10682 10685 10685 10685 10688 10693 10696 10699 10703 10707 10709 10712 10713 10714 10716 10720 10728 10737 10742 10750 10759 10766 10773 10776 10777 10782 10788 10793 10801 10811 10818 10822 10825 10831 10838 10841 10844 10851 10852 10851 10855 10858 10859 10864 10874 10882 10884 10886 10891 10896 10900 10902 10903 10907 10912 10914 10920 10924 10922 10920 10920 10920 10922 10923 10923 10923 10923 10923 10921 10920 10920 10921 10921 10920
10643 10641 10643 10647 10646 10647 10652 10655 10656 10660 10663 10665 10669 10671 10672 10675 10676 10676 10677 10681 10684 10687 10692 10697 10699 10702 10703 10704 10707 10713 10721 10728 10733 10740 10748 10756 10762 10766 10766 10770 10777 10785 10795 10805 10811 10812 10816 10825 10833 10834 10833 10837 10840 10841 10848 10855 10859 10865 10874 10879 10880 10882 10884 10886 10890 10893 10896 10902 10906 10909 10916 10920 10917 10915 10915 10915 10916 10917 10917 10918 10918 10917 10916 10916 10916 10917 10916 10916
10627 10625 10628 10633 10633 10633 10638 10642 10645 10649 10651 10654 10658 10659 10661 10664 10666 10665 10666 10670 10674 10677 10682 10687 10689 10691 10693 10694 10699 10706 10712 10718 10724 10731 10739 10746 10752 10755 10756 10760 10768 10778 10788 10797 10800 10800 10806 10816 10822 10823 10824 10830 10837 10843 10851 10859 10860 10862 10868 10872 10873 10873 10874 10877 10881 10884 10889 10896 10899 10903 10909 10911 10909 10909 10908 10908 10909 10910 10911 10912 10912 10912 10911 10912 10912 10913 10912 10911
10610 10610 10612 10618 10620 10619 10624 10629 10632 10635 10639 10642 10646 10647 10649 10653 10655 10654 10656 10659 10663 10667 10672 10676 10678 10681 10684 10687 10692 10697 10703 10708 10715 10722 10729 10736 10741 10744 10746 10750 10759 10769 10779 10786 10787 10789 10797 10806 10812 10815 10819 10826 10835 10842 10846 10849 10849 10851 10857 10861 10862 10863 10864 10866 10868 10874 10884 10889 10890 10895 10900 10901 10902 10902 10902 10902 10903 10905 10906 10907 10908 10907 10906 10908 10909 10909 10907 10906
10593 10594 10595 10600 10606 10607 10609 10615 10618 10622 10626 10630 10633 10635 10638 10641 10643 10644 10646 10649 10652 10656 10662 10665 10668 10671 10674 10678 10682 10687 10693 10700 10707 10713 10720 10726 10731 10734 10736 10741 10749 10759 10768 10773 10775 10780 10789 10798 10805 10810 10815 10821 10828 10832 10832 10833 10836 10840 10845 10849 10851 10852 10853 10855 10859 10868 10876 10878 10882 10890 10892 10893 10896 10896 10896 10897 10898 10900 10901 10902 10903 10903 10902 10904 10904 10903 10902 10900
10575 10577 10578 10582 10590 10594 10595 10599 10604 10608 10613 10617 10620 10622 10625 10628 10631 10633 10637 10640 10642 10645 10650 10654 10657 10660 10664 10667 10672 10679 10685 10692 10700 10706 10710 10715 10722 10726 10727 10731 10738 10748 10755 10759 10765 10771 10779 10790 10797 10802 10808 10814 10819 10822 10822 10823 10827 10831 10835 10839 10842 10843 10845 10847 10853 10862 10866 10870 10878 10884 10883 10885 10890 10890 10891 10893 10894 10896 10897 10898 10899 10898 10898 10899 10898 10897 10896 10895
10556 10559 10560 10563 10572 10578 10580 10584 10589 10593 10598 10603 10607 10609 10612 10616 10619 10624 10628 10630 10631 10633 10638 10644 10647 10650 10654 10658 10665 10672 10677 10683 10691 10695 10698 10704 10712 10717 10717 10720 10729 10737 10743 10749 10754 10759 10768 10780 10786 10790 10798 10804 10808 10811 10813 10814 10818 10822 10827 10831 10834 10837 10839 10841 10846 10853 10857 10864 10872 10875 10874 10879 10884 10885 10886 10888 10889 10892 10894 10895 10895 10893 10894 10894 10891 10890 10891 10890
10536 10539 10541 10545 10552 10558 10564 10569 10573 10578 10583 10588 10593 10596 10600 10604 10608 10613 10617 10619 10620 10622 10627 10634 10638 10640 10645 10650 10657 10664 10667 10673 10680 10685 10687 10693 10700 10705 10706 10710 10719 10726 10732 10738 10743 10749 10761 10772 10776 10780 10787 10794 10798 10801 10804 10805 10809 10814 10820 10824 10827 10830 10832 10835 10840 10846 10851 10858 10865 10867 10869 10875 10880 10881 10882 10883 10884 10887 10888 10889 10889 10888 10888 10887 10885 10884 10885 10885
10514 10518 10521 10526 10531 10536 10544 10552 10558 10562 10566 10572 10579 10583 10587 10590 10595 10601 10604 10606 10609 10612 10618 10624 10626 10630 10635 10640 10647 10654 10658 10664 10671 10675 10678 10683 10689 10694 10696 10701 10708 10714 10721 10728 10733 10742 10753 10761 10765 10769 10777 10786 10792 10794 10797 10799 10800 10803 10810 10816 10820 10823 10827 10831 10836 10840 10845 10850 10856 10859 10864 10872 10876 10874 10875 10876 10878 10881 10882 10882 10882 10882 10882 10880 10879 10879 10880 10879
10492 10496 10499 10504 10509 10514 10521 10531 10539 10545 10549 10555 10563 10569 10572 10575 10581 10587 10591 10594 10598 10601 10607 10612 10614 10619 10625 10630 10638 10645 10650 10656 10661 10663 10666 10673 10680 10684 10687 10691 10697 10703 10711 10718 10724 10732 10741 10749 10755 10760 10770 10782 10786 10786 10789 10789 10785 10791 10803 10813 10816 10819 10822 10825 10829 10833 10837 10841 10846 10853 10861 10868 10868 10866 10868 10871 10873 10874 10874 10873 10873 10874 10875 10874 10873 10873 10874 10872